Vorticity
8 8 8 8 8 7 7 6 6 5 4 2 1 1 1 2 4 5 6 8 9 9 8 7 6 5 5 6 8 10 11 12 12 12 11 11 10 10 10 10 10 10 10 10 9 9 9 8 8 7 7 7 7 7 7 6 6 6 6 7 7 7 7 7 8 8 9 9 10
7 7 7 7 7 7 6 5 4 3 2 2 2 2 3 5 6 7 7 8 8 8 6 5 5 5 6 8 10 12 12 12 11 11 10 10 10 10 10 10 10 10 9 9 9 8 8 7 7 7 7 6 6 6 6 6 6 6 7 7 7 8 8 9 9 10 11 11 12
7 7 7 7 6 6 5 4 3 3 3 3 4 5 6 6 7 7 7 7 7 6 5 4 5 6 9 11 12 12 12 11 10 10 10 10 10 10 10 10 9 9 9 8 8 7 7 6 6 6 6 6 6 6 6 6 7 7 8 8 9 10 11 12 12 13 13 14 14
6 6 6 6 5 5 4 4 4 4 4 5 6 6 6 6 6 6 6 6 5 5 4 4 6 9 11 12 12 12 11 10 10 10 10 10 10 10 10 9 9 8 8 7 7 6 6 6 5 6 6 6 6 7 7 7 8 9 10 10 12 13 14 14 15 15 15 15 15
5 4 4 4 4 4 4 4 5 5 6 6 6 5 5 5 5 5 5 5 5 4 5 7 9 11 12 13 12 11 10 10 10 10 10 10 10 9 9 8 8 7 6 6 6 5 5 5 5 6 6 7 7 8 8 9 10 12 12 13 14 15 16 15 15 15 15 14 13
4 4 4 4 4 5 5 6 6 6 6 5 4 4 4 4 5 5 5 5 5 6 8 10 12 12 12 12 11 11 10 11 11 10 10 10 9 8 8 7 6 6 5 5 5 5 5 5 6 7 7 8 9 10 11 12 13 14 14 15 15 15 15 14 14 13 12 11 10
5 5 5 6 6 6 6 6 6 5 4 4 3 3 4 4 5 5 5 5 6 8 10 12 13 13 12 12 11 11 11 11 10 10 9 8 8 7 6 6 5 5 5 5 5 5 6 7 8 9 10 11 12 13 13 14 15 15 14 14 14 13 12 12 11 9 8 7 6
7 7 7 7 7 7 6 6 5 4 4 3 4 4 4 5 6 6 6 7 9 11 12 13 13 13 12 12 12 12 11 10 10 9 8 7 6 6 5 5 5 5 5 5 6 7 8 9 10 11 12 13 14 14 14 14 14 13 13 12 11 10 9 8 7 6 5 4 4
9 8 8 7 7 6 6 5 5 4 4 4 5 5 6 7 7 7 8 10 11 12 13 13 13 13 13 13 12 11 10 9 8 7 7 6 5 5 5 5 5 5 6 7 8 9 11 12 13 14 14 14 14 14 14 13 12 11 10 9 8 7 6 5 4 4 3 3 4
9 8 8 8 8 8 7 6 6 6 5 5 6 7 7 8 8 9 10 11 12 13 14 14 14 13 13 12 10 9 8 7 7 6 6 5 5 5 5 5 6 7 8 10 11 12 13 14 14 14 14 14 13 12 11 10 9 8 7 6 6 5 4 4 4 4 4 4 4
9 9 9 9 9 9 8 7 7 7 7 7 8 8 8 9 10 11 12 13 14 15 15 15 14 13 11 10 8 7 7 6 6 5 5 5 5 6 6 7 9 10 12 13 14 14 14 14 13 13 12 11 10 9 8 7 6 6 6 5 5 4 4 4 5 5 5 5 6
9 9 9 9 9 8 8 7 7 8 8 8 8 9 10 10 12 13 14 15 16 16 15 14 12 10 9 7 7 6 6 5 5 5 5 6 7 8 9 11 12 13 14 14 14 13 13 12 11 10 9 8 7 7 6 6 5 5 5 5 5 5 5 5 6 6 6 6 6
8 8 8 8 8 8 8 7 7 8 8 9 10 11 12 14 15 16 17 17 17 15 13 11 9 8 7 6 6 5 5 5 5 6 7 8 10 11 12 13 14 14 14 13 12 11 10 9 8 7 7 6 6 5 5 5 5 5 5 5 6 6 6 6 6 6 6 6 6
7 7 7 7 7 7 7 7 8 9 11 12 14 15 16 18 18 18 18 16 14 12 10 8 7 6 5 5 5 5 5 6 7 8 10 11 12 13 14 14 13 12 11 10 9 8 7 7 6 6 6 5 5 5 5 5 6 6 6 6 6 6 6 6 6 6 6 5 5
7 7 7 8 8 8 9 10 12 14 16 17 18 19 19 19 18 17 15 13 10 8 7 6 5 5 5 5 5 6 7 9 10 12 13 13 13 13 13 12 11 9 8 7 6 6 5 5 5 5 5 6 6 6 6 6 6 6 6 7 6 6 6 6 6 5 5 5 5
8 9 10 11 12 14 15 17 18 19 19 19 19 18 17 16 14 12 10 8 6 5 5 5 5 5 6 6 8 9 11 12 13 13 13 13 12 11 10 8 7 6 6 5 5 5 5 5 5 5 6 6 6 6 7 7 7 7 7 6 6 6 6 5 5 5 5 5 5
13 15 16 18 18 19 20 20 19 19 18 17 16 14 13 11 9 7 6 5 5 5 5 5 6 7 8 10 11 12 13 13 13 13 12 10 9 8 7 6 5 5 5 4 5 5 5 5 5 6 6 6 7 7 7 7 7 7 6 6 6 6 5 5 5 5 5 5 6
19 19 19 19 18 18 17 16 16 15 14 12 11 9 8 7 6 5 5 5 5 6 6 7 9 10 11 13 13 13 13 12 11 10 8 7 6 5 5 4 4 4 4 5 5 5 5 6 6 6 6 7 7 7 7 7 7 6 6 6 5 5 5 5 5 5 6 6 7
17 17 16 16 15 15 14 13 12 11 10 8 7 6 6 5 5 5 6 6 7 8 9 11 12 13 13 13 13 12 10 9 8 7 6 5 4 4 4 4 4 4 5 5 5 6 6 6 6 6 7 7 7 7 7 6 6 6 6 5 5 5 5 5 6 6 7 8 9
15 14 14 13 13 12 11 10 8 7 6 6 6 6 6 6 7 7 8 9 10 11 12 13 13 13 12 11 10 9 7 6 5 4 4 4 4 4 4 4 4 5 5 5 6 6 6 6 6 7 7 7 7 7 7 6 6 6 6 5 5 5 6 6 7 7 9 10 11
13 12 11 10 9 8 7 6 6 5 6 6 6 7 8 8 9 10 11 11 12 12 13 12 12 11 10 8 7 6 5 4 4 4 4 4 4 4 4 4 5 5 5 5 6 6 6 6 6 7 7 7 7 6 6 6 6 6 6 6 6 6 7 7 8 9 10 11 12
9 8 7 6 5 5 5 5 6 6 7 8 8 9 10 10 11 12 12 12 12 12 11 10 9 8 6 5 4 4 3 3 3 3 4 4 4 4 4 4 5 5 5 6 6 6 6 6 7 7 7 7 7 6 6 6 6 6 6 6 7 7 8 9 9 10 11 12 12
6 5 5 4 5 5 6 7 7 8 9 10 10 11 11 12 12 12 11 11 11 10 9 7 6 5 4 3 3 3 3 3 3 3 4 4 4 4 4 5 5 5 6 6 6 6 6 7 7 7 7 6 6 6 6 6 6 6 7 7 8 8 9 10 10 11 11 11 11
5 5 5 5 6 7 8 9 10 10 11 11 11 11 11 11 11 11 10 10 9 7 6 5 4 3 3 3 3 3 3 3 3 4 4 4 4 4 4 5 5 6 6 6 6 7 7 6 6 6 6 6 6 6 6 7 7 8 8 9 9 9 10 10 11 11 11 10 10
5 5 6 7 8 9 10 10 11 11 12 11 11 11 11 10 10 9 9 8 7 5 4 4 3 3 2 2 3 3 3 3 3 4 4 4 4 5 5 5 6 6 6 6 7 7 7 7 6 6 6 6 6 7 7 8 9 9 10 10 10 10 10 10 10 10 10 9 8
6 6 7 8 9 10 11 11 11 11 11 11 10 10 10 9 9 8 7 6 5 4 4 3 3 2 2 3 3 3 3 4 4 4 4 4 4 5 5 6 6 6 6 7 7 7 7 6 6 6 6 6 7 8 9 9 10 10 10 10 10 10 10 10 10 9 9 8 7
7 8 9 9 10 10 11 11 10 10 10 9 9 9 8 8 7 7 6 5 5 4 3 3 3 3 3 3 3 3 4 4 4 4 5 5 5 5 6 6 6 6 6 6 6 6 6 6 6 6 7 8 9 9 10 10 10 10 10 10 10 10 10 9 9 8 7 7 7
8 9 9 10 10 10 10 10 9 9 9 9 9 8 8 8 7 7 6 5 4 4 3 3 3 3 3 3 4 4 4 4 5 5 5 5 5 6 6 6 6 6 6 6 6 6 6 6 6 7 8 10 10 11 11 11 11 11 10 10 10 9 9 8 8 7 7 6 6
9 9 10 10 10 9 9 9 8 8 8 8 8 8 8 7 7 6 6 5 4 4 4 3 3 4 4 4 4 4 5 5 5 5 6 6 6 6 6 6 5 5 5 5 5 5 6 7 8 9 10 11 12 12 12 11 11 10 10 9 9 8 8 7 7 6 6 6 5
10 10 10 10 9 8 8 8 8 8 8 8 8 8 8 7 7 6 5 5 4 4 4 4 4 4 5 5 5 5 5 6 6 6 6 6 6 6 5 5 5 5 5 5 5 6 7 9 10 11 12 12 12 12 11 11 10 10 9 8 8 7 7 6 6 6 6 6 5
10 10 9 9 8 8 8 8 8 8 9 9 9 8 8 7 7 6 6 5 5 4 4 5 5 5 5 5 6 6 6 6 6 6 6 5 5 5 5 5 5 5 5 6 7 9 10 11 12 12 12 12 11 11 10 10 9 8 8 7 7 7 6 6 6 6 6 5 5
10 9 9 8 8 8 8 8 8 9 9 9 9 8 8 7 7 6 6 6 5 5 5 6 6 6 6 6 6 6 6 6 5 5 5 5 5 4 4 5 5 6 7 8 10 11 12 13 13 12 11 11 10 10 9 8 8 7 7 6 6 6 6 6 6 6 6 5 5
9 8 8 7 8 8 8 9 9 9 9 9 9 9 8 8 7 7 6 6 6 6 6 6 6 6 6 6 6 6 5 5 5 5 5 4 4 5 5 6 7 9 10 11 12 13 13 13 12 11 10 10 9 8 8 7 7 6 6 6 6 6 6 6 6 5 5 5 5
8 8 8 8 8 9 9 10 10 10 10 9 9 9 8 8 7 7 7 7 7 7 7 7 6 6 6 6 5 5 5 5 5 5 5 5 5 6 7 9 10 11 13 13 13 13 12 11 10 10 9 8 7 7 6 6 6 6 6 6 6 6 6 6 6 6 6 6 6
8 8 8 9 9 10 10 10 10 10 10 9 9 9 8 8 8 8 7 7 7 7 6 6 6 5 5 5 4 4 4 5 5 5 6 6 7 9 11 12 13 13 14 13 13 12 11 10 9 8 7 7 6 6 6 6 6 6 6 5 5 5 5 5 6 6 6 7 7
8 9 9 10 10 10 10 10 10 10 10 9 9 9 8 8 8 7 7 7 6 6 6 5 5 4 4 4 4 5 5 5 6 6 8 9 11 12 13 14 14 14 13 12 11 10 9 8 7 7 6 6 6 6 5 5 5 5 5 5 5 5 5 6 6 7 7 8 8
9 10 10 10 11 11 11 10 10 10 9 9 8 8 8 7 7 6 6 5 4 4 4 4 4 4 4 5 5 6 6 7 8 9 11 13 14 15 15 14 13 13 11 10 9 8 8 7 7 6 6 6 5 5 5 5 5 5 5 5 5 5 6 6 7 7 8 9 9
10 10 11 11 11 11 10 10 10 9 8 8 7 7 6 6 5 5 4 3 3 3 4 4 4 4 5 5 6 7 9 10 12 13 14 16 16 15 14 13 12 11 10 9 8 7 7 7 6 6 6 6 5 5 5 5 5 5 5 5 5 6 6 7 7 8 8 9 9
11 11 11 11 11 10 10 9 8 8 7 6 6 5 4 4 4 3 3 2 2 2 3 4 5 6 6 7 9 11 12 14 15 16 16 16 15 13 12 11 10 9 8 8 7 7 6 6 6 6 6 6 5 5 5 5 5 5 5 6 6 6 7 8 8 9 9 9 10
12 12 11 11 10 9 8 7 6 6 5 4 4 3 3 3 3 3 3 2 2 3 4 5 6 8 9 11 13 14 15 16 16 16 15 14 12 11 10 9 8 8 7 7 7 6 6 6 6 6 6 6 5 5 5 5 5 5 6 6 6 7 7 8 9 9 9 10 10
12 11 10 9 8 7 6 5 5 4 3 3 2 2 2 2 2 2 3 3 4 4 6 7 9 11 13 14 15 16 16 16 15 14 12 11 10 9 8 8 7 7 7 7 6 6 6 6 6 6 6 5 5 5 5 5 5 6 6 7 7 7 7 8 9 10 10 10 11
Height
5753 5752 5752 5751 5751 5751 5750 5749 5749 5749 5748 5747 5746 5745 5744 5744 5743 5742 5742 5741 5741 5740 5739 5739 5738 5737 5736 5735 5734 5733 5732 5731 5730 5728 5727 5726 5725 5723 5722 5721 5719 5718 5716 5715 5714 5712 5711 5710 5708 5707 5706 5705 5704 5702 5701 5700 5698 5696 5695 5694 5693 5691 5690 5688 5687 5686 5685 5683 5682
5750 5750 5749 5749 5748 5748 5747 5747 5746 5746 5745 5744 5743 5742 5741 5741 5740 5739 5739 5738 5738 5737 5736 5736 5735 5734 5733 5732 5731 5730 5729 5727 5726 5725 5724 5723 5721 5720 5719 5717 5716 5715 5713 5712 5711 5709 5708 5706 5705 5704 5703 5701 5700 5699 5697 5696 5695 5693 5691 5690 5689 5688 5686 5685 5684 5682 5681 5680 5678
5747 5747 5746 5746 5746 5745 5745 5744 5744 5743 5742 5741 5740 5739 5738 5737 5737 5736 5736 5735 5735 5734 5733 5732 5731 5731 5730 5729 5727 5726 5726 5724 5723 5722 5721 5720 5718 5717 5716 5714 5713 5711 5710 5709 5707 5706 5705 5703 5702 5701 5699 5698 5697 5696 5694 5692 5691 5690 5688 5686 5685 5684 5683 5681 5680 5679 5677 5676 5674
5744 5744 5744 5743 5743 5742 5742 5741 5741 5740 5739 5738 5737 5736 5735 5735 5734 5733 5733 5732 5731 5731 5730 5729 5728 5727 5726 5726 5724 5723 5722 5721 5720 5719 5717 5716 5715 5714 5712 5711 5710 5708 5707 5706 5704 5703 5701 5700 5699 5697 5696 5695 5693 5692 5690 5689 5687 5686 5684 5683 5682 5681 5679 5678 5676 5675 5673 5672 5670
5742 5741 5741 5740 5740 5739 5738 5738 5737 5736 5735 5735 5734 5733 5732 5732 5731 5731 5730 5729 5729 5728 5727 5726 5725 5724 5723 5722 5721 5720 5719 5718 5717 5716 5714 5713 5712 5711 5709 5708 5706 5705 5704 5702 5701 5699 5698 5697 5695 5694 5692 5691 5690 5688 5687 5685 5684 5682 5681 5679 5678 5677 5676 5674 5672 5671 5670 5668 5666
5739 5738 5738 5737 5736 5736 5735 5735 5734 5733 5732 5731 5731 5730 5730 5729 5728 5728 5727 5726 5726 5725 5724 5723 5722 5721 5720 5719 5718 5717 5716 5715 5713 5712 5711 5710 5708 5707 5706 5704 5703 5702 5700 5699 5697 5696 5695 5693 5692 5691 5689 5688 5686 5685 5683 5682 5680 5678 5677 5676 5675 5673 5672 5670 5669 5667 5666 5664 5663
5736 5735 5735 5734 5734 5733 5732 5731 5731 5730 5729 5729 5728 5727 5727 5726 5726 5725 5724 5723 5722 5721 5721 5720 5719 5718 5717 5716 5715 5714 5712 5711 5710 5709 5707 5706 5705 5704 5702 5701 5700 5698 5697 5696 5694 5693 5691 5690 5689 5687 5686 5684 5683 5681 5680 5678 5676 5675 5673 5672 5671 5670 5668 5667 5665 5664 5662 5661 5659
5733 5732 5732 5731 5731 5730 5729 5729 5728 5727 5726 5726 5725 5725 5724 5723 5723 5722 5721 5720 5719 5718 5717 5716 5716 5715 5714 5712 5711 5710 5709 5708 5706 5705 5704 5703 5701 5700 5699 5698 5696 5695 5694 5692 5691 5690 5688 5687 5685 5684 5682 5681 5679 5678 5676 5675 5673 5671 5670 5669 5667 5666 5665 5663 5662 5660 5659 5657 5656
5730 5729 5729 5728 5728 5727 5726 5726 5725 5724 5724 5723 5722 5722 5721 5721 5720 5719 5718 5717 5716 5715 5714 5713 5712 5711 5710 5709 5708 5707 5706 5704 5703 5702 5701 5700 5698 5697 5696 5695 5693 5692 5691 5689 5688 5686 5685 5683 5682 5680 5679 5677 5676 5674 5673 5671 5670 5668 5666 5665 5664 5662 5661 5660 5658 5657 5655 5653 5651
5727 5726 5726 5726 5725 5724 5723 5723 5722 5721 5721 5720 5720 5719 5718 5717 5716 5716 5715 5714 5713 5712 5711 5711 5709 5708 5707 5706 5705 5703 5702 5701 5700 5699 5697 5696 5695 5694 5693 5691 5690 5689 5687 5686 5684 5683 5681 5680 5678 5676 5675 5674 5672 5671 5669 5668 5666 5665 5663 5661 5660 5658 5657 5656 5655 5653 5651 5649 5648
5724 5724 5723 5723 5722 5721 5721 5720 5719 5719 5718 5717 5717 5716 5715 5715 5714 5713 5712 5711 5710 5709 5708 5707 5706 5705 5704 5702 5701 5700 5699 5698 5696 5695 5694 5693 5692 5691 5689 5688 5686 5685 5684 5682 5681 5679 5678 5676 5675 5673 5671 5670 5669 5667 5666 5664 5663 5661 5659 5658 5656 5655 5653 5652 5651 5649 5647 5646 5644
5721 5721 5720 5720 5719 5718 5718 5717 5716 5716 5715 5715 5714 5713 5712 5711 5711 5710 5709 5708 5707 5706 5705 5704 5703 5702 5701 5699 5698 5697 5696 5695 5693 5692 5691 5690 5688 5687 5686 5685 5683 5682 5680 5679 5677 5676 5674 5673 5671 5670 5668 5667 5666 5664 5662 5661 5659 5657 5656 5654 5652 5651 5649 5648 5646 5645 5643 5641 5639
5719 5718 5717 5717 5716 5716 5715 5714 5714 5713 5712 5712 5711 5710 5710 5709 5708 5707 5706 5705 5704 5703 5702 5701 5700 5699 5697 5696 5695 5694 5692 5691 5690 5689 5688 5686 5685 5684 5682 5681 5680 5678 5677 5675 5674 5672 5671 5669 5668 5666 5665 5663 5662 5660 5659 5657 5655 5654 5652 5650 5649 5647 5646 5644 5642 5641 5639 5637 5635
5716 5715 5715 5714 5713 5713 5712 5711 5711 5711 5710 5709 5708 5707 5706 5706 5705 5704 5703 5702 5701 5700 5699 5697 5696 5695 5694 5693 5692 5691 5689 5688 5687 5686 5684 5683 5682 5681 5679 5677 5676 5675 5673 5672 5671 5669 5667 5666 5664 5663 5661 5660 5658 5656 5655 5653 5651 5650 5648 5646 5645 5643 5641 5640 5638 5636 5635 5633 5631
5713 5712 5712 5711 5711 5710 5710 5709 5708 5708 5707 5706 5705 5704 5703 5702 5701 5701 5700 5698 5697 5696 5696 5694 5693 5692 5691 5690 5689 5687 5686 5685 5684 5682 5681 5680 5678 5677 5676 5674 5673 5671 5670 5668 5667 5666 5664 5662 5661 5659 5658 5656 5654 5653 5651 5650 5648 5646 5644 5643 5641 5639 5637 5636 5634 5632 5631 5629 5626
5711 5710 5710 5709 5708 5708 5707 5706 5705 5704 5704 5703 5702 5701 5700 5699 5698 5697 5696 5695 5694 5693 5692 5691 5690 5689 5688 5686 5685 5684 5683 5681 5680 5679 5678 5676 5675 5674 5672 5671 5669 5668 5666 5665 5663 5662 5661 5659 5657 5656 5654 5652 5651 5649 5647 5646 5644 5642 5641 5639 5637 5635 5633 5631 5630 5628 5626 5624 5622
5708 5707 5707 5706 5705 5704 5704 5703 5702 5701 5700 5699 5698 5698 5697 5696 5695 5694 5693 5692 5691 5690 5689 5688 5687 5686 5685 5683 5682 5681 5679 5678 5677 5676 5674 5673 5672 5670 5669 5667 5666 5665 5663 5661 5660 5658 5657 5656 5654 5652 5651 5649 5647 5645 5643 5642 5640 5638 5636 5635 5633 5631 5629 5627 5626 5624 5622 5620 5618
5705 5704 5704 5703 5702 5701 5701 5700 5699 5698 5697 5696 5695 5694 5693 5693 5692 5691 5690 5689 5688 5687 5686 5685 5684 5682 5681 5680 5678 5677 5676 5675 5673 5672 5671 5670 5668 5667 5666 5664 5662 5661 5659 5658 5656 5655 5653 5652 5650 5648 5647 5645 5643 5641 5640 5638 5636 5634 5632 5631 5629 5627 5625 5623 5621 5620 5618 5616 5614
5702 5701 5701 5700 5699 5698 5697 5696 5696 5695 5694 5693 5692 5691 5691 5690 5689 5688 5687 5686 5685 5684 5682 5681 5680 5679 5678 5676 5675 5674 5673 5671 5670 5669 5668 5666 5665 5663 5662 5661 5659 5657 5656 5654 5653 5651 5650 5648 5646 5645 5643 5641 5640 5638 5636 5634 5632 5630 5628 5626 5625 5623 5621 5619 5617 5615 5613 5611 5609
5699 5698 5697 5697 5696 5695 5694 5694 5693 5692 5691 5690 5689 5688 5687 5686 5686 5685 5684 5682 5681 5680 5679 5678 5677 5676 5674 5673 5672 5671 5670 5668 5667 5666 5664 5663 5661 5660 5658 5657 5655 5654 5652 5651 5649 5647 5646 5644 5642 5641 5639 5637 5636 5634 5632 5630 5628 5626 5624 5622 5621 5618 5616 5615 5613 5611 5609 5607 5605
5696 5695 5694 5694 5693 5692 5691 5691 5690 5689 5688 5687 5686 5685 5684 5683 5682 5681 5680 5679 5678 5677 5676 5675 5674 5672 5671 5670 5669 5667 5666 5665 5664 5662 5661 5659 5658 5656 5655 5653 5651 5650 5649 5647 5645 5644 5642 5640 5639 5637 5635 5634 5632 5630 5628 5626 5624 5622 5620 5618 5616 5614 5612 5610 5608 5606 5604 5602 5600
5693 5692 5691 5691 5690 5689 5688 5688 5687 5686 5685 5684 5683 5682 5681 5680 5679 5678 5677 5676 5675 5674 5673 5671 5671 5669 5668 5667 5666 5664 5663 5661 5660 5659 5657 5656 5654 5653 5651 5650 5648 5646 5645 5643 5641 5640 5638 5636 5635 5633 5631 5630 5628 5626 5624 5622 5620 5618 5616 5614 5612 5610 5608 5606 5604 5602 5600 5597 5596
5690 5689 5689 5688 5687 5686 5686 5685 5684 5683 5682 5681 5680 5679 5678 5677 5676 5675 5674 5672 5671 5671 5670 5668 5667 5666 5665 5663 5662 5661 5659 5658 5656 5655 5654 5652 5651 5649 5648 5646 5644 5643 5641 5639 5638 5636 5634 5632 5631 5629 5627 5626 5624 5622 5620 5618 5616 5614 5612 5610 5608 5606 5604 5601 5599 5597 5595 5593 5591
5687 5686 5686 5685 5684 5683 5682 5682 5681 5680 5679 5678 5677 5676 5675 5674 5673 5671 5671 5670 5669 5667 5666 5665 5664 5663 5661 5660 5659 5657 5656 5655 5653 5652 5650 5649 5647 5646 5644 5642 5641 5639 5637 5636 5634 5632 5630 5628 5626 5625 5623 5622 5620 5618 5616 5614 5612 5610 5608 5606 5603 5601 5599 5597 5595 5592 5590 5588 5586
5685 5684 5683 5682 5681 5681 5680 5679 5678 5677 5676 5675 5674 5673 5672 5671 5670 5669 5667 5666 5666 5664 5663 5662 5661 5660 5658 5657 5656 5654 5653 5651 5650 5648 5646 5645 5644 5642 5640 5639 5637 5635 5633 5631 5630 5628 5626 5625 5623 5621 5619 5618 5616 5614 5612 5610 5607 5605 5603 5601 5599 5597 5595 5592 5590 5588 5586 5584 5581
5682 5681 5681 5680 5679 5678 5677 5676 5675 5674 5673 5672 5671 5670 5669 5668 5666 5666 5665 5663 5662 5661 5660 5659 5657 5656 5655 5653 5652 5651 5649 5648 5646 5645 5643 5641 5640 5638 5636 5635 5633 5631 5630 5628 5626 5624 5622 5621 5619 5617 5615 5614 5612 5610 5608 5606 5603 5601 5599 5596 5595 5592 5590 5588 5586 5583 5581 5579 5577
5679 5679 5678 5677 5676 5675 5674 5673 5672 5671 5670 5669 5668 5667 5666 5665 5663 5662 5661 5660 5659 5658 5657 5656 5654 5653 5651 5650 5649 5647 5646 5644 5642 5641 5639 5638 5636 5634 5633 5631 5629 5627 5626 5624 5622 5620 5618 5616 5615 5613 5611 5609 5607 5606 5603 5601 5599 5597 5595 5592 5590 5588 5586 5584 5581 5579 5577 5574 5572
5677 5676 5675 5674 5673 5672 5671 5670 5669 5668 5667 5666 5665 5664 5662 5661 5660 5659 5658 5657 5656 5655 5653 5652 5651 5649 5648 5646 5645 5644 5642 5641 5639 5637 5636 5634 5632 5631 5629 5627 5625 5623 5621 5620 5618 5616 5614 5612 5610 5608 5606 5605 5603 5601 5599 5597 5594 5592 5590 5588 5586 5583 5581 5579 5577 5575 5572 5570 5568
5674 5673 5672 5671 5670 5669 5668 5667 5666 5665 5664 5662 5661 5660 5659 5658 5657 5656 5655 5653 5652 5651 5650 5648 5647 5646 5645 5643 5641 5640 5638 5637 5635 5634 5632 5630 5628 5626 5625 5623 5621 5619 5617 5616 5614 5612 5610 5608 5606 5603 5601 5600 5598 5596 5594 5592 5590 5588 5586 5583 5581 5579 5576 5574 5572 5570 5568 5565 5563
5671 5670 5669 5668 5667 5666 5665 5664 5663 5661 5660 5659 5658 5657 5656 5655 5654 5652 5651 5650 5649 5648 5646 5645 5644 5642 5641 5640 5638 5636 5635 5633 5631 5630 5628 5626 5624 5622 5621 5619 5617 5615 5613 5611 5609 5607 5605 5603 5601 5599 5597 5595 5593 5591 5589 5587 5585 5583 5581 5579 5576 5574 5572 5570 5567 5565 5563 5561 5558
5667 5667 5666 5665 5664 5663 5661 5661 5659 5658 5657 5656 5655 5654 5653 5652 5651 5649 5648 5647 5646 5645 5643 5642 5641 5639 5637 5636 5635 5633 5631 5629 5628 5626 5624 5622 5621 5618 5616 5615 5612 5611 5608 5607 5605 5603 5601 5598 5596 5594 5592 5590 5588 5586 5584 5582 5581 5578 5576 5574 5572 5569 5567 5565 5562 5560 5558 5555 5553
5665 5664 5663 5662 5661 5660 5658 5657 5656 5655 5654 5653 5652 5651 5650 5649 5647 5646 5645 5644 5643 5641 5640 5639 5637 5636 5634 5632 5631 5629 5627 5626 5624 5622 5620 5618 5616 5614 5612 5610 5608 5606 5604 5602 5600 5598 5596 5594 5591 5590 5587 5586 5584 5581 5580 5578 5576 5574 5571 5569 5567 5565 5562 5560 5557 5555 5552 5550 5548
5661 5661 5660 5659 5658 5656 5655 5654 5653 5652 5651 5650 5649 5648 5646 5646 5644 5643 5642 5641 5640 5638 5637 5635 5634 5632 5631 5629 5627 5626 5624 5622 5620 5618 5616 5614 5612 5610 5608 5606 5604 5601 5599 5597 5595 5593 5591 5589 5587 5585 5583 5581 5579 5577 5575 5573 5571 5569 5567 5565 5562 5560 5557 5555 5552 5550 5547 5545 5542
5659 5658 5656 5656 5655 5653 5652 5651 5650 5649 5648 5647 5646 5645 5644 5642 5641 5640 5639 5637 5636 5635 5633 5632 5630 5628 5627 5625 5623 5621 5620 5618 5616 5614 5612 5610 5608 5606 5604 5601 5599 5597 5595 5593 5591 5589 5587 5585 5582 5580 5578 5576 5575 5573 5571 5568 5566 5564 5562 5560 5557 5555 5553 5550 5548 5545 5542 5539 5536
5656 5655 5654 5653 5651 5651 5649 5648 5647 5646 5645 5644 5643 5641 5641 5639 5638 5637 5636 5634 5633 5631 5630 5628 5626 5625 5623 5621 5619 5618 5616 5614 5611 5610 5608 5606 5603 5601 5599 5597 5595 5593 5591 5588 5586 5584 5582 5580 5578 5576 5574 5572 5570 5568 5566 5564 5562 5560 5557 5555 5553 5550 5548 5545 5542 5540 5537 5534 5531
5653 5652 5651 5650 5649 5647 5646 5645 5644 5643 5642 5641 5640 5639 5637 5636 5635 5634 5632 5631 5629 5628 5626 5624 5622 5621 5619 5617 5615 5613 5611 5609 5607 5605 5603 5601 5599 5597 5595 5593 5591 5588 5586 5584 5582 5580 5578 5576 5573 5571 5569 5567 5565 5563 5561 5559 5557 5555 5553 5550 5548 5545 5543 5540 5537 5535 5532 5529 5526
5650 5649 5648 5646 5646 5645 5643 5642 5641 5640 5639 5638 5637 5636 5634 5633 5632 5630 5629 5627 5626 5624 5622 5621 5619 5617 5615 5613 5611 5609 5607 5605 5603 5601 5598 5596 5595 5592 5590 5588 5586 5584 5581 5579 5577 5575 5573 5571 5569 5566 5564 5562 5560 5558 5556 5555 5552 5551 5548 5546 5543 5541 5538 5536 5533 5530 5526 5523 5520
5647 5646 5645 5644 5642 5641 5640 5639 5638 5637 5636 5635 5634 5632 5631 5630 5628 5627 5625 5624 5622 5620 5618 5616 5615 5613 5611 5609 5607 5605 5602 5601 5598 5596 5594 5592 5590 5588 5586 5584 5581 5579 5577 5575 5572 5570 5568 5566 5564 5561 5559 5557 5556 5554 5552 5550 5548 5546 5543 5541 5538 5536 5533 5531 5528 5525 5521 5518 5515
5644 5642 5641 5641 5639 5638 5637 5636 5635 5634 5633 5631 5631 5629 5628 5626 5625 5623 5621 5620 5618 5616 5614 5612 5611 5609 5606 5605 5602 5600 5598 5596 5594 5592 5590 5587 5586 5584 5582 5580 5577 5575 5573 5570 5568 5566 5563 5561 5559 5556 5555 5552 5551 5549 5547 5545 5543 5541 5538 5536 5533 5531 5528 5525 5523 5520 5517 5513 5510
5641 5639 5638 5637 5636 5635 5634 5633 5632 5631 5630 5628 5627 5626 5624 5623 5621 5619 5617 5616 5614 5612 5610 5608 5606 5604 5602 5600 5598 5596 5594 5591 5590 5587 5585 5583 5581 5579 5577 5575 5573 5571 5568 5566 5563 5561 5559 5556 5554 5552 5549 5547 5545 5543 5541 5540 5537 5535 5533 5531 5528 5526 5523 5520 5517 5515 5512 5508 5505
5637 5636 5635 5634 5633 5632 5631 5630 5629 5627 5626 5625 5623 5622 5620 5619 5617 5615 5613 5611 5610 5608 5606 5604 5602 5600 5598 5596 5594 5591 5589 5587 5585 5583 5581 5579 5576 5575 5573 5571 5568 5566 5564 5561 5559 5556 5554 5551 5549 5547 5544 5542 5540 5538 5536 5534 5532 5530 5527 5525 5523 5521 5518 5515 5512 5509 5506 5503 5500